Regional Weather Roundup
Issued by NWS Little Rock, AR

Home | Current Version | Previous Version | Graphics & Text | Print | Product List | Glossary On
Versions: 1 2 3 4 5 6 7 8 9 10 11 12 13 14 15 16 17 18 19 20 21 22 23 24 25 26 27 28 29 30 31
000
ASUS44 KLZK 080505
RWRLZK

WEATHER ROUNDUP FOR ARKANSAS
NATIONAL WEATHER SERVICE LITTLE ROCK AR
1100 PM CST WED DEC 07 2016

NOTE: "FAIR" INDICATES FEW OR NO CLOUDS BELOW 12,000 FEET WITH NO
SIGNIFICANT WEATHER AND/OR OBSTRUCTIONS TO VISIBILITY.

ARZ001-003-010-029-080600-
NORTHWEST ARKANSAS

CITY           SKY/WX    TMP DP  RH WIND       PRES   REMARKS
FAYETTEVILLE   PTCLDY    29  24  82 N9        30.40R WCI  20
FORT SMITH     CLOUDY    37  29  72 NW6       30.41R
HARRISON       CLOUDY    30  24  78 NW8       30.37R WCI  22
BENTONVILLE    CLOUDY    28  21  74 N7        30.42R WCI  21
ROGERS         CLOUDY    28  24  85 N10       30.42R WCI  19
SILOAM SPGS    CLOUDY    28  23  80 N9        30.42R WCI  20
HIGHFILL       CLOUDY    29  25  85 N8        30.41R WCI  21
$$

ARZ004-005-016-080600-
NORTH CENTRAL ARKANSAS

CITY           SKY/WX    TMP DP  RH WIND       PRES   REMARKS
BATESVILLE     CLOUDY    37  19  48 NW8       30.37R
FLIPPIN        CLOUDY    36  19  51 N7        30.35R
MTN HOME       CLOUDY    33  22  63 N7        30.36R WCI  27
$$

ARZ040-041-080600-
WEST CENTRAL ARKANSAS

CITY           SKY/WX    TMP DP  RH WIND       PRES   REMARKS
MENA           CLOUDY    37  36  93 NE12      30.34R
MOUNT IDA      CLOUDY    36  31  82 VRB5      30.32R
$$

ARZ009-017-025-026-028-080600-
NORTHEAST ARKANSAS

CITY           SKY/WX    TMP DP  RH WIND       PRES   REMARKS
CORNING        CLOUDY    37  25  60 N10       30.35R
JONESBORO      CLOUDY    40  21  46 N9        30.33R
NEWPORT        CLOUDY    39  26  59 N9        30.36
WALNUT RIDGE   CLOUDY    37  21  52 N10       30.34R
BLYTHEVILLE    CLOUDY    38  27  64 N13       30.33R
$$

ARZ022-023-033-042-044-080600-
CENTRAL ARKANSAS

CITY           SKY/WX    TMP DP  RH WIND       PRES   REMARKS
LITTLE ROCK    CLOUDY    38  28  67 N7        30.35R
JACKSONVILLE   CLOUDY    40  26  58 NW5       30.34R
SEARCY         CLOUDY    40  22  48 N6        30.37R
HOT SPRINGS    CLOUDY    37  32  82 NE5       30.35R
RUSSELLVILLE   CLOUDY    36  32  85 NW5       30.37R
CLINTON        CLOUDY    39  21  48 VRB7G14   30.37R
$$

ARZ036-080600-
EAST ARKANSAS

CITY           SKY/WX    TMP DP  RH WIND       PRES   REMARKS
WEST MEMPHIS   CLOUDY    40  29  64 N8        30.30R
$$

ARZ050-053-066-070-073-080600-
SOUTHWEST ARKANSAS

CITY           SKY/WX    TMP DP  RH WIND       PRES   REMARKS
ARKADELPHIA    LGT RAIN  38  36  92 N8        30.36R
CAMDEN         LGT RAIN  39  36  87 N8        30.33R
TEXARKANA      CLOUDY    40  39  97 NE12      30.31R FOG
EL DORADO      CLOUDY    43  40  89 N7        30.29R
DE QUEEN       CLOUDY    40  36  86 NE12      30.34R
$$

ARZ056-057-069-080600-
SOUTHEAST ARKANSAS

CITY           SKY/WX    TMP DP  RH WIND       PRES   REMARKS
PINE BLUFF     CLOUDY    39  33  79 N12       30.34R
STUTTGART      CLOUDY    39  27  60 N10       30.34R
MONTICELLO     CLOUDY    43  36  76 NE6       30.30R

$$






USA.gov is the U.S. government's official web portal to all federal, state and local government web resources and services.